K5TWC Weather Reports


time (UTC)temp
C
wind
direction
speed
KPH
gust
KPH
rain 1hr
cm
rain 24hr
cm
rain mn
cm
humidity
%
barometer
mb
20260509065006 20 230 0.0 1.6 0.00 0.00 0.00 89 1010.4
20260509064518 20 230 0.0 1.6 0.00 0.00 0.00 89 1010.2
20260509064006 20 230 0.0 3.2 0.00 0.00 0.00 88 1010.3
20260509063505 20 230 0.0 3.2 0.00 0.00 0.00 88 1010.3
20260509063022 20 215 0.0 3.2 0.00 0.00 0.00 88 1010.4
20260509062511 20 215 0.0 3.2 0.00 0.00 0.00 88 1010.3
20260509062004 21 216 0.0 3.2 0.00 0.00 0.00 87 1010.3
20260509061505 21 216 0.0 3.2 0.00 0.00 0.00 87 1010.2
20260509061006 21 218 0.0 0.0 0.00 0.00 0.00 87 1010.6
20260509060503 21 218 0.0 0.0 0.00 0.00 0.00 86 1010.9
20260509060008 21 218 0.0 0.0 0.00 0.00 0.00 86 1010.9
20260509055503 21 218 0.0 0.0 0.00 0.00 0.00 86 1011.0
20260509055005 21 218 0.0 0.0 0.00 0.00 0.00 86 1011.2
20260509054516 21 218 0.0 1.6 0.00 0.00 0.00 86 1011.4
20260509054004 21 217 0.0 1.6 0.00 0.00 0.00 86 1011.2
20260509053504 21 219 0.0 1.6 0.00 0.00 0.00 85 1011.0
20260509053018 21 219 0.0 1.6 0.00 0.00 0.00 85 1011.4
20260509052506 21 219 0.0 3.2 0.00 0.00 0.00 85 1011.7
20260509052005 21 219 0.0 3.2 0.00 0.00 0.00 85 1012.0
20260509051528 21 208 0.0 1.6 0.00 0.00 0.00 85 1011.9
20260509051010 21 208 0.0 1.6 0.00 0.00 0.00 84 1011.6
20260509050504 21 208 0.0 1.6 0.00 0.00 0.00 84 1011.0
20260509050007 21 209 0.0 1.6 0.00 0.00 0.00 84 1010.5
20260509045505 21 203 0.0 1.6 0.00 0.00 0.00 83 1010.3
20260509045003 21 202 0.0 1.6 0.00 0.00 0.00 83 1010.3
20260509044512 21 203 0.0 1.6 0.00 0.00 0.00 83 1010.4
20260509044003 22 203 0.0 8.0 0.00 0.00 0.00 82 1010.3
20260509043503 22 201 0.0 8.0 0.00 0.00 0.00 82 1009.9
20260509043013 22 202 0.0 9.7 0.00 0.00 0.00 82 1009.9
20260509042505 22 196 0.0 12.9 0.00 0.00 0.00 81 1009.8
20260509042010 22 150 3.2 12.9 0.00 0.00 0.00 81 1009.8
20260509041522 22 164 1.6 8.0 0.00 0.00 0.00 81 1010.2
20260509041010 22 190 0.0 0.0 0.00 0.00 0.00 81 1010.6
20260509040511 22 190 0.0 0.0 0.00 0.00 0.00 81 1011.1
20260509040026 22 190 0.0 0.0 0.00 0.00 0.00 81 1011.4
20260509035515 22 190 0.0 0.0 0.00 0.00 0.00 81 1011.3
20260509035004 22 190 0.0 0.0 0.00 0.00 0.00 81 1011.2
20260509034533 22 190 0.0 0.0 0.00 0.00 0.00 81 1011.3
20260509034003 22 190 0.0 0.0 0.00 0.00 0.00 81 1011.4
20260509033503 22 189 0.0 0.0 0.00 0.00 0.00 81 1011.2
20260509033012 22 189 0.0 0.0 0.00 0.00 0.00 81 1010.9
20260509032507 22 189 0.0 0.0 0.00 0.00 0.00 81 1010.7
20260509032012 22 189 0.0 1.6 0.00 0.00 0.00 81 1010.5
20260509031522 22 189 0.0 1.6 0.00 0.00 0.00 81 1010.4
20260509031007 22 189 0.0 1.6 0.00 0.00 0.00 80 1010.3
20260509030507 22 190 0.0 1.6 0.00 0.00 0.00 80 1010.4
20260509030023 22 190 0.0 1.6 0.00 0.00 0.00 80 1010.5
20260509025506 22 190 0.0 1.6 0.00 0.00 0.00 80 1010.3
20260509025008 22 190 0.0 0.0 0.00 0.00 0.00 80 1010.3
20260509024525 22 190 0.0 4.8 0.00 0.00 0.00 80 1010.1
20260509024008 22 190 0.0 4.8 0.00 0.00 0.00 79 1009.9
20260509023506 22 195 0.0 3.2 0.00 0.00 0.00 79 1009.7
20260509023009 22 194 0.0 3.2 0.00 0.00 0.00 79 1009.7
20260509022503 22 191 0.0 3.2 0.00 0.00 0.00 79 1009.7
20260509022004 22 191 0.0 3.2 0.00 0.00 0.00 79 1009.7
20260509021520 22 191 0.0 6.4 0.00 0.00 0.00 79 1009.7
20260509021008 22 180 0.0 8.0 0.00 0.00 0.00 79 1009.7
20260509020509 22 163 0.0 8.0 0.00 0.00 0.00 79 1009.3
20260509020020 22 192 0.0 3.2 0.00 0.00 0.00 79 1009.7
20260509015507 22 192 0.0 3.2 0.00 0.00 0.00 79 1009.8
20260509015008 22 192 0.0 0.0 0.00 0.00 0.00 78 1009.6
20260509014523 22 192 0.0 0.0 0.00 0.00 0.00 78 1009.6
20260509014007 22 192 0.0 0.0 0.00 0.00 0.00 78 1009.5
20260509013508 22 192 0.0 0.0 0.00 0.00 0.00 77 1009.5
20260509013026 22 192 0.0 0.0 0.00 0.00 0.00 77 1009.3
20260509012509 22 192 0.0 0.0 0.00 0.00 0.00 77 1009.4
20260509012004 22 192 0.0 1.6 0.00 0.00 0.00 77 1009.0
20260509011512 22 192 0.0 1.6 0.00 0.00 0.00 76 1009.3
20260509011003 22 192 0.0 4.8 0.00 0.00 0.00 76 1008.8
20260509010504 23 192 0.0 4.8 0.00 0.00 0.00 75 1009.1
20260509010021 23 191 0.0 4.8 0.00 0.00 0.00 75 1009.0
20260509005505 23 183 0.0 4.8 0.00 0.00 0.00 75 1008.9
20260509005007 23 202 0.0 9.7 0.00 0.00 0.00 75 1008.9
20260509004532 23 190 0.0 9.7 0.00 0.00 0.00 74 1008.8
20260509004008 23 191 0.0 6.4 0.00 0.00 0.00 74 1008.8
20260509003508 23 175 0.0 8.0 0.00 0.00 0.00 74 1008.8
20260509003026 23 167 0.0 12.9 0.00 0.00 0.00 73 1008.7
20260509002511 23 191 1.6 12.9 0.00 0.00 0.00 73 1008.3
20260509002012 23 360 1.6 12.9 0.00 0.00 0.00 73 1008.5
20260509001512 23 176 0.0 6.4 0.00 0.00 0.00 73 1008.7
20260509001004 23 193 0.0 4.8 0.00 0.00 0.00 72 1008.9
20260509000504 23 192 0.0 8.0 0.00 0.00 0.00 72 1008.9
20260509000015 23 206 0.0 9.7 0.00 0.00 0.00 72 1008.8
20260508235504 23 182 1.6 9.7 0.00 0.00 0.00 71 1008.9
20260508235004 23 162 0.0 9.7 0.00 0.00 0.00 70 1008.9
20260508234522 24 193 1.6 9.7 0.00 0.00 0.00 70 1009.0
20260508234006 24 360 0.0 8.0 0.00 0.00 0.00 69 1009.1
20260508233506 24 205 0.0 4.8 0.00 0.00 0.00 69 1009.2
20260508233020 24 197 0.0 3.2 0.00 0.00 0.00 70 1009.1
20260508232507 24 192 0.0 4.8 0.00 0.00 0.00 70 1009.2
20260508232007 24 189 0.0 6.4 0.00 0.00 0.00 70 1009.4
20260508231509 24 206 0.0 9.7 0.00 0.00 0.00 70 1009.5
20260508231003 24 211 0.0 12.9 0.00 0.00 0.00 69 1009.5
20260508230502 24 196 3.2 12.9 0.00 0.00 0.00 69 1009.5
20260508230011 25 257 0.0 8.0 0.00 0.00 0.00 69 1009.5
20260508225503 25 360 0.0 9.7 0.00 0.00 0.00 68 1009.5
20260508225008 25 167 0.0 11.3 0.00 0.00 0.00 68 1009.5
20260508224520 25 225 1.6 11.3 0.00 0.00 0.00 67 1009.5
20260508224003 25 158 1.6 11.3 0.00 0.00 0.00 67 1009.4
20260508223504 26 309 1.6 14.5 0.00 0.00 0.00 66 1009.4
20260508223034 26 360 3.2 14.5 0.00 0.00 0.00 67 1009.3
20260508222506 26 233 3.2 14.5 0.00 0.00 0.00 66 1009.2
20260508222008 26 194 1.6 16.1 0.00 0.00 0.00 66 1009.2
20260508221524 26 212 0.0 16.1 0.00 0.00 0.00 66 1009.2
20260508221007 26 360 4.8 16.1 0.00 0.00 0.00 66 1009.1
20260508220504 26 360 1.6 17.7 0.00 0.00 0.00 66 1009.1
20260508220010 26 360 6.4 17.7 0.00 0.00 0.00 67 1009.1
20260508215504 26 201 0.0 12.9 0.00 0.00 0.00 67 1009.1
20260508215004 25 192 1.6 12.9 0.00 0.00 0.00 68 1009.2
20260508214521 25 214 4.8 12.9 0.00 0.00 0.00 68 1009.1
20260508214006 25 141 3.2 12.9 0.00 0.00 0.00 68 1008.9
20260508213503 25 144 0.0 9.7 0.00 0.00 0.00 69 1008.9
20260508213019 24 157 1.6 9.7 0.00 0.00 0.00 69 1009.2
20260508212504 23 188 3.2 8.0 0.00 0.00 0.00 72 1009.3
20260508212011 23 194 0.0 8.0 0.00 0.00 0.00 72 1009.7
20260508211524 23 180 1.6 8.0 0.00 0.00 0.00 71 1009.8
20260508211012 23 191 1.6 8.0 0.00 0.00 0.00 71 1009.9
20260508210508 23 209 0.0 4.8 0.00 0.00 0.00 72 1010.2
20260508210026 23 211 0.0 4.8 0.00 0.00 0.00 73 1010.5
20260508205503 24 360 0.0 4.8 0.00 0.00 0.00 72 1010.6
20260508205004 24 197 0.0 4.8 0.00 0.00 0.00 68 1010.7
20260508204514 24 202 0.0 12.9 0.00 0.00 0.00 67 1010.9
20260508204005 25 207 0.0 12.9 0.00 0.00 0.00 67 1010.9
20260508203504 25 360 0.0 6.4 0.00 0.00 0.00 66 1011.0
20260508203018 25 204 0.0 16.1 0.00 0.00 0.00 65 1011.1
20260508202507 25 43 0.0 16.1 0.00 0.00 0.00 64 1011.0
20260508202006 26 360 0.0 8.0 0.00 0.00 0.00 63 1011.0
20260508201521 26 360 0.0 14.5 0.00 0.00 0.00 63 1011.0
20260508201006 26 237 1.6 14.5 0.00 0.00 0.00 62 1011.0
20260508200507 26 215 1.6 12.9 0.00 0.00 0.00 61 1011.0
20260508200023 27 360 1.6 9.7 0.00 0.00 0.00 61 1011.0
20260508195509 27 47 0.0 8.0 0.00 0.00 0.00 60 1011.0
20260508195006 27 221 0.0 9.7 0.00 0.00 0.00 60 1011.0
20260508194528 27 224 1.6 17.7 0.00 0.00 0.00 60 1011.2
20260508194003 27 360 0.0 17.7 0.00 0.00 0.00 58 1011.2
20260508193504 27 360 0.0 8.0 0.00 0.00 0.00 59 1011.2
20260508193010 27 360 0.0 6.4 0.00 0.00 0.00 60 1011.2
20260508192507 27 246 0.0 8.0 0.00 0.00 0.00 60 1011.2
20260508192009 27 360 0.0 14.5 0.00 0.00 0.00 60 1011.3
20260508191518 27 170 1.6 14.5 0.00 0.00 0.00 61 1011.4
20260508191004 27 360 0.0 14.5 0.00 0.00 0.00 61 1011.4
20260508190506 27 360 4.8 14.5 0.00 0.00 0.00 61 1011.4
20260508190044 26 166 0.0 14.5 0.00 0.00 0.00 62 1011.5
20260508185507 26 360 3.2 14.5 0.00 0.00 0.00 62 1011.5
20260508185007 25 184 0.0 14.5 0.00 0.00 0.00 63 1011.6
20260508184530 25 103 4.8 14.5 0.00 0.00 0.00 63 1011.4
20260508184014 25 119 6.4 14.5 0.00 0.00 0.00 62 1011.6
20260508183507 26 200 1.6 12.9 0.00 0.00 0.00 62 1011.8
20260508183036 26 360 6.4 14.5 0.00 0.00 0.00 61 1011.9
20260508182504 26 360 3.2 14.5 0.00 0.00 0.00 61 1012.0
20260508182004 26 159 1.6 14.5 0.00 0.00 0.00 61 1012.1
20260508181518 26 360 4.8 14.5 0.00 0.00 0.00 60 1012.1
20260508181008 26 159 1.6 14.5 0.00 0.00 0.00 60 1012.3
20260508180509 26 185 1.6 14.5 0.00 0.00 0.00 60 1012.4
20260508180018 26 360 1.6 12.9 0.00 0.00 0.00 61 1012.5
20260508175506 26 360 3.2 16.1 0.00 0.00 0.00 60 1012.6
20260508175007 26 145 3.2 16.1 0.00 0.00 0.00 61 1012.7
20260508174522 25 204 3.2 14.5 0.00 0.00 0.00 61 1012.7
20260508174003 25 171 6.4 14.5 0.00 0.00 0.00 61 1012.8
20260508173502 25 157 1.6 17.7 0.00 0.00 0.00 62 1012.8
20260508173008 25 171 0.0 17.7 0.00 0.00 0.00 63 1012.9
20260508172503 25 139 1.6 14.5 0.00 0.00 0.00 63 1013.1
20260508172004 24 360 3.2 19.3 0.00 0.00 0.00 63 1013.2
20260508171510 24 159 4.8 19.3 0.00 0.00 0.00 63 1013.2
20260508171003 24 162 3.2 16.1 0.00 0.00 0.00 64 1013.4
20260508170505 23 153 3.2 11.3 0.00 0.00 0.00 65 1013.5
20260508170021 23 142 1.6 14.5 0.00 0.00 0.00 65 1013.7
20260508165506 23 160 1.6 14.5 0.00 0.00 0.00 65 1013.9
20260508165007 23 136 1.6 8.0 0.00 0.00 0.00 67 1014.0
20260508164528 22 150 0.0 6.4 0.00 0.00 0.00 67 1014.1
20260508164007 22 360 1.6 14.5 0.00 0.00 0.00 66 1014.2
20260508163508 22 149 1.6 14.5 0.00 0.00 0.00 66 1014.2
20260508163030 22 196 1.6 11.3 0.00 0.00 0.00 66 1014.2
20260508162503 22 177 1.6 8.0 0.00 0.00 0.00 66 1014.3
20260508162003 22 160 0.0 9.7 0.00 0.00 0.00 66 1014.4
20260508161511 22 170 1.6 9.7 0.00 0.00 0.00 65 1014.4
20260508161004 22 185 0.0 9.7 0.00 0.00 0.00 65 1014.4
20260508160507 22 225 0.0 11.3 0.00 0.00 0.00 65 1014.5
20260508160015 22 219 0.0 14.5 0.00 0.00 0.00 66 1014.6
20260508155504 22 360 0.0 14.5 0.00 0.00 0.00 66 1014.6
20260508155004 22 360 0.0 12.9 0.00 0.00 0.00 67 1014.5
20260508154520 22 360 1.6 12.9 0.00 0.00 0.00 67 1014.6
20260508154007 22 164 0.0 8.0 0.00 0.00 0.00 67 1014.6
20260508153508 21 193 0.0 9.7 0.00 0.00 0.00 68 1014.7
20260508153031 21 360 0.0 9.7 0.00 0.00 0.00 68 1014.8
20260508152511 21 201 0.0 8.0 0.00 0.00 0.00 68 1015.0
20260508152010 21 360 0.0 11.3 0.00 0.00 0.00 67 1015.0
20260508151525 21 161 1.6 11.3 0.00 0.00 0.00 67 1015.0
20260508151004 22 152 1.6 16.1 0.00 0.00 0.00 66 1015.0
20260508150504 22 162 4.8 16.1 0.00 0.00 0.00 66 1014.9
20260508150011 22 167 4.8 11.3 0.00 0.00 0.00 67 1014.6
20260508145505 21 150 1.6 9.7 0.00 0.00 0.00 69 1014.6
20260508145005 21 164 0.0 6.4 0.00 0.00 0.00 69 1014.6
20260508144525 21 215 0.0 6.4 0.00 0.00 0.00 69 1014.7
20260508144006 21 203 0.0 14.5 0.00 0.00 0.00 69 1014.9
20260508143506 21 171 0.0 14.5 0.00 0.00 0.00 69 1015.0
20260508143023 21 147 3.2 12.9 0.00 0.00 0.00 68 1014.9
20260508142506 21 157 6.4 12.9 0.00 0.00 0.00 67 1015.0
20260508142010 21 168 1.6 9.7 0.00 0.00 0.00 68 1015.1
20260508141525 21 142 0.0 8.0 0.00 0.00 0.00 72 1015.2
20260508141010 20 171 0.0 9.7 0.00 0.00 0.00 73 1015.1
20260508140508 20 158 1.6 9.7 0.00 0.00 0.00 73 1015.1
20260508140025 20 127 1.6 6.4 0.00 0.00 0.00 75 1015.2
20260508135504 19 133 0.0 12.9 0.00 0.00 0.00 75 1015.2
20260508135007 19 360 1.6 12.9 0.00 0.00 0.00 77 1015.2
20260508134512 18 360 0.0 8.0 0.00 0.00 0.00 81 1015.1
20260508134005 18 153 0.0 8.0 0.00 0.00 0.00 80 1015.2
20260508133506 17 157 0.0 9.7 0.00 0.00 0.00 81 1015.2
20260508133018 17 151 0.0 9.7 0.00 0.00 0.00 82 1015.1
20260508132512 17 360 0.0 8.0 0.00 0.00 0.00 83 1015.1
20260508132009 17 142 0.0 3.2 0.00 0.00 0.00 83 1015.3
20260508131522 17 143 0.0 3.2 0.00 0.00 0.00 83 1015.3
20260508131007 17 143 0.0 1.6 0.00 0.00 0.00 85 1015.3
20260508130510 17 144 0.0 6.4 0.00 0.00 0.00 84 1015.4
20260508130033 16 142 0.0 6.4 0.00 0.00 0.00 85 1015.3
20260508125508 16 177 1.6 6.4 0.00 0.00 0.00 87 1015.3
20260508125008 16 196 0.0 1.6 0.00 0.00 0.00 88 1015.4
20260508124525 16 196 0.0 4.8 0.00 0.00 0.00 89 1015.6
20260508124006 16 197 0.0 4.8 0.00 0.00 0.00 90 1015.6
20260508123502 16 198 0.0 0.0 0.00 0.00 0.00 90 1015.6
20260508123016 16 198 0.0 0.0 0.00 0.00 0.00 90 1015.5
20260508122509 16 198 0.0 0.0 0.00 0.00 0.00 90 1015.6
20260508122006 16 198 0.0 0.0 0.00 0.00 0.00 90 1015.5
20260508121520 16 198 0.0 0.0 0.00 0.00 0.00 90 1015.7
20260508121005 16 198 0.0 0.0 0.00 0.00 0.00 90 1015.6
20260508120508 16 198 0.0 0.0 0.00 0.00 0.00 90 1015.6
20260508120023 16 198 0.0 1.6 0.00 0.00 0.00 90 1015.4
20260508115507 16 198 0.0 1.6 0.00 0.00 0.00 89 1015.4
20260508115012 16 198 0.0 6.4 0.00 0.00 0.00 89 1015.6
20260508114526 16 198 0.0 6.4 0.00 0.00 0.00 89 1015.4
20260508114007 16 191 0.0 6.4 0.00 0.00 0.00 89 1015.4
20260508113508 16 186 1.6 6.4 0.00 0.00 0.00 89 1015.3
20260508113027 16 209 0.0 1.6 0.00 0.00 0.00 89 1015.5
20260508112506 16 215 0.0 0.0 0.00 0.00 0.00 89 1015.6
20260508112006 16 215 0.0 0.0 0.00 0.00 0.00 89 1015.9
20260508111514 16 215 0.0 0.0 0.00 0.00 0.00 89 1015.8
20260508111007 16 215 0.0 0.0 0.00 0.00 0.00 89 1015.8
20260508110504 16 303 0.0 3.2 0.00 0.00 0.00 89 1015.9
20260508110020 16 304 0.0 8.0 0.00 0.00 0.00 89 1016.1
20260508105506 16 304 1.6 8.0 0.00 0.00 0.00 89 1016.3
20260508105008 16 307 1.6 8.0 0.00 0.00 0.00 89 1016.1
20260508104528 16 197 0.0 4.8 0.00 0.00 0.00 89 1015.3
20260508104014 16 197 0.0 4.8 0.00 0.00 0.00 89 1015.1
20260508103506 16 197 0.0 4.8 0.00 0.00 0.00 89 1014.7
20260508103033 16 196 0.0 4.8 0.00 0.00 0.00 89 1014.4
20260508102513 16 184 0.0 1.6 0.00 0.00 0.00 89 1014.5
20260508102012 16 184 0.0 1.6 0.00 0.00 0.00 89 1014.5
20260508101528 16 182 0.0 3.2 0.00 0.00 0.00 89 1014.4
20260508101003 16 182 0.0 3.2 0.00 0.00 0.00 90 1014.2
20260508100503 16 161 0.0 3.2 0.00 0.00 0.00 90 1014.4
20260508100019 16 161 0.0 3.2 0.00 0.00 0.00 90 1014.4
20260508095509 16 161 0.0 0.0 0.00 0.00 0.00 90 1014.3
20260508095008 16 161 0.0 0.0 0.00 0.00 0.00 90 1014.4
20260508094524 16 161 0.0 0.0 0.00 0.00 0.00 89 1014.7
20260508094009 16 161 0.0 0.0 0.00 0.00 0.00 89 1014.7
20260508093507 16 161 0.0 0.0 0.00 0.00 0.00 89 1014.6
20260508093035 16 161 0.0 0.0 0.00 0.00 0.00 89 1014.5
20260508092510 16 161 0.0 0.0 0.00 0.00 0.00 89 1014.6
20260508092012 16 161 0.0 1.6 0.00 0.00 0.00 89 1014.6
20260508091533 16 161 0.0 3.2 0.00 0.00 0.00 89 1014.8
20260508091007 16 160 0.0 3.2 0.00 0.00 0.00 89 1014.7
20260508090510 16 160 0.0 3.2 0.00 0.00 0.00 89 1014.7
20260508090027 16 159 0.0 4.8 0.00 0.00 0.00 89 1014.6
20260508085507 16 157 0.0 8.0 0.00 0.00 0.00 89 1014.5
20260508085004 16 360 1.6 8.0 0.00 0.00 0.00 89 1014.4
20260508084520 16 360 0.0 8.0 0.00 0.00 0.00 89 1014.6
20260508084008 16 167 1.6 6.4 0.00 0.00 0.00 89 1014.8
20260508083508 16 360 0.0 1.6 0.00 0.00 0.00 88 1015.3
20260508083021 16 219 0.0 1.6 0.00 0.00 0.00 88 1015.5
20260508082517 16 224 0.0 0.0 0.00 0.00 0.00 88 1015.6
20260508082011 16 225 0.0 0.0 0.00 0.00 0.00 88 1015.7
20260508081526 16 225 0.0 0.0 0.00 0.00 0.00 88 1015.9
20260508081010 16 225 0.0 1.6 0.00 0.00 0.00 87 1016.2
20260508080507 16 225 0.0 1.6 0.00 0.00 0.00 87 1016.4
20260508080030 16 224 0.0 4.8 0.00 0.00 0.00 87 1016.4
20260508075509 16 225 0.0 4.8 0.00 0.00 0.00 87 1016.4
20260508075008 16 194 0.0 1.6 0.00 0.00 0.00 87 1016.2
20260508074527 16 194 0.0 0.0 0.00 0.00 0.00 87 1015.9
20260508074005 16 194 0.0 0.0 0.00 0.00 0.00 87 1015.5
20260508073505 16 194 0.0 0.0 0.00 0.00 0.00 87 1015.7
20260508073023 16 194 0.0 0.0 0.00 0.00 0.00 87 1015.8
20260508072508 16 194 0.0 1.6 0.00 0.00 0.00 87 1015.7
20260508072008 16 194 0.0 1.6 0.00 0.00 0.00 87 1015.8
20260508071524 16 194 0.0 0.0 0.00 0.00 0.00 87 1015.8
20260508071012 16 194 0.0 0.0 0.00 0.00 0.00 87 1015.9
20260508070507 16 194 0.0 0.0 0.00 0.00 0.00 87 1015.7
20260508070027 16 194 0.0 0.0 0.00 0.00 0.00 87 1016.0
20260508065509 16 194 0.0 0.0 0.00 0.00 0.00 87 1016.2